Wind_Speed
31 31 30 32 35 39 32 27 26 29 28 31 32 35 38 40 43 46 49 52 55 56 60 61 63 66 69 69 70 72 72 72 74
35 31 30 35 37 32 27 27 29 31 32 35 35 38 41 44 47 49 52 55 57 60 62 65 67 69 69 70 72 73 75 75 78
34 32 32 34 31 28 28 31 32 35 36 37 40 41 45 47 51 53 57 58 61 62 65 67 69 69 72 70 72 76 77 79 79
30 28 30 29 30 31 32 34 35 39 40 41 43 45 49 51 55 58 59 61 63 65 67 69 70 70 72 72 75 77 81 82 79
27 29 29 31 32 34 36 37 39 42 43 45 48 49 53 56 58 60 62 63 66 68 69 69 69 70 73 74 78 81 83 82 81
31 33 34 35 36 38 40 41 43 45 46 48 51 53 57 59 61 63 65 66 68 70 71 72 71 72 75 78 81 84 85 83 85
34 35 37 39 40 42 43 44 47 49 50 52 54 56 60 61 63 66 68 69 71 72 71 70 73 76 79 82 85 86 85 86 90
36 38 40 41 42 43 44 46 49 51 53 55 57 59 61 63 65 67 70 72 73 72 72 73 77 79 83 87 88 87 88 92 94
39 41 41 43 44 46 48 50 53 54 57 58 60 62 64 67 68 70 72 74 74 75 75 78 80 83 88 89 89 91 95 99 93
43 44 45 45 46 48 51 54 55 56 58 60 62 65 67 70 72 73 75 75 75 77 79 82 84 88 90 92 93 96 102 102 90
47 48 48 50 49 51 52 54 56 58 61 63 66 68 70 73 74 75 76 76 78 80 83 86 89 90 93 94 97 103 108 97 88
51 50 50 50 54 55 57 60 61 62 65 67 68 71 72 75 76 77 76 80 82 85 88 89 91 95 96 97 103 110 104 93 84
53 53 53 55 58 61 63 64 66 67 69 70 71 73 75 76 77 78 81 83 86 90 90 92 96 97 98 103 107 110 100 90 85
59 58 58 61 65 66 68 69 70 71 72 73 75 76 75 75 79 83 84 89 91 89 93 97 98 100 105 109 113 108 96 90 84
60 63 65 66 67 70 72 72 73 73 75 76 77 77 76 81 84 85 90 92 92 94 98 101 103 106 110 114 115 105 96 86 75
65 69 71 71 73 74 74 73 76 78 78 76 78 79 83 86 88 89 90 93 96 98 102 102 107 110 115 115 114 101 92 77 67
72 73 75 75 75 75 76 78 78 78 80 80 80 81 85 89 90 90 92 95 98 102 103 108 111 115 118 117 105 97 84 72 60
76 77 76 75 77 79 78 77 77 78 81 82 84 86 86 85 87 94 97 100 103 105 108 111 115 119 117 111 101 92 78 68 58
75 77 80 78 77 76 77 78 80 82 85 87 90 87 85 85 89 94 99 103 105 108 111 114 119 117 114 102 96 83 73 66 60
77 77 77 77 77 79 81 82 83 84 84 85 86 88 92 96 99 101 103 102 107 110 114 117 114 112 101 97 85 76 70 65 62
Wind_Direction
268 276 278 283 283 287 282 282 285 285 293 297 302 305 308 312 314 315 317 320 323 324 328 331 333 334 334 334 335 333 331 332 333
276 277 274 277 277 278 281 285 283 289 294 297 301 303 307 311 313 317 318 321 323 327 328 331 332 333 333 332 331 330 330 330 332
268 268 268 271 274 280 285 286 287 288 291 297 299 304 306 311 313 317 319 321 324 325 328 329 330 331 331 328 328 327 329 329 331
262 263 268 276 282 284 284 285 287 291 293 296 300 303 306 311 314 315 318 320 323 325 327 328 328 328 327 325 325 326 327 328 328
259 264 275 279 283 285 286 289 290 291 294 298 300 305 307 311 312 315 317 320 323 324 326 325 325 325 324 322 323 324 326 327 326
267 274 280 283 283 285 286 289 291 291 293 297 301 305 309 310 312 315 317 321 323 324 323 323 323 320 320 320 322 323 325 325 324
269 275 276 277 280 283 285 289 291 293 295 298 301 305 309 310 313 314 317 320 321 321 319 318 317 318 319 320 321 322 323 323 322
268 270 272 273 275 279 281 285 289 292 295 299 304 308 308 310 312 314 316 318 319 318 315 315 316 317 318 319 320 322 321 321 320
272 275 277 279 281 282 284 287 290 295 299 302 306 306 307 309 311 313 314 316 317 315 314 315 315 316 317 319 320 320 320 320 320
273 277 279 281 283 287 290 291 292 296 300 303 305 305 307 308 310 312 312 315 313 312 313 314 314 316 318 319 319 320 320 319 316
272 275 280 282 286 289 292 293 294 299 301 302 304 304 306 307 309 309 312 312 310 311 312 314 314 317 318 318 319 320 321 317 315
273 276 280 280 287 291 292 295 298 298 300 302 303 304 305 307 308 309 310 309 309 312 312 312 315 317 317 317 319 322 320 316 312
273 274 279 283 287 291 294 297 297 299 301 301 301 302 303 305 307 308 308 307 310 311 312 314 315 316 316 319 320 322 318 315 312
274 278 282 285 289 292 295 296 296 298 298 299 300 302 304 305 305 307 307 309 310 312 312 314 315 316 317 319 321 320 317 314 311
275 280 283 286 288 290 292 294 295 295 297 298 300 302 303 303 306 307 308 309 310 312 314 313 315 315 318 319 320 319 317 314 309
277 279 282 284 288 289 290 292 293 294 296 299 301 302 303 305 306 306 308 309 311 312 312 313 314 315 318 318 320 317 316 312 308
277 280 283 285 287 288 289 291 293 295 296 298 300 302 304 305 305 308 308 309 310 311 312 313 314 315 317 318 317 315 314 311 306
278 280 284 285 285 287 290 293 294 295 297 299 298 299 301 303 305 306 307 309 310 310 311 311 313 315 316 317 315 314 313 309 305
279 279 282 285 287 289 290 291 292 293 294 295 297 300 302 301 303 304 307 308 307 308 309 311 313 315 315 314 314 313 311 309 306
278 279 281 283 284 285 287 288 290 292 293 296 297 298 299 301 302 304 305 304 305 306 308 310 312 313 312 312 313 312 311 309 306
Height
10934 10935 10934 10935 10934 10934 10932 10932 10931 10929 10927 10926 10923 10921 10918 10915 10912 10908 10905 10901 10896 10891 10885 10879 10874 10869 10863 10856 10851 10846 10840 10834 10827
10929 10929 10929 10930 10929 10928 10927 10926 10925 10923 10921 10919 10917 10915 10912 10909 10905 10901 10897 10892 10888 10882 10877 10871 10866 10860 10854 10849 10843 10837 10831 10825 10817
10924 10925 10925 10925 10924 10923 10921 10921 10919 10918 10916 10913 10911 10909 10905 10902 10897 10893 10889 10884 10880 10875 10868 10863 10858 10852 10846 10841 10835 10829 10822 10815 10808
10920 10920 10921 10919 10918 10917 10916 10915 10913 10911 10909 10906 10904 10901 10898 10894 10890 10885 10881 10876 10872 10866 10861 10855 10848 10844 10839 10832 10826 10820 10813 10805 10798
10915 10915 10914 10913 10912 10911 10910 10908 10906 10905 10902 10899 10896 10893 10889 10885 10881 10876 10872 10867 10862 10857 10852 10846 10840 10835 10830 10824 10818 10811 10804 10796 10788
10908 10908 10907 10906 10905 10904 10903 10901 10899 10897 10895 10892 10889 10885 10881 10878 10873 10868 10863 10858 10853 10847 10841 10835 10831 10826 10821 10814 10806 10799 10791 10784 10776
10902 10902 10901 10900 10899 10897 10896 10894 10892 10888 10886 10884 10881 10877 10873 10868 10863 10858 10853 10849 10845 10838 10832 10827 10821 10816 10809 10802 10795 10788 10780 10773 10765
10896 10895 10895 10894 10892 10891 10889 10887 10885 10881 10878 10876 10872 10868 10863 10859 10854 10849 10844 10839 10835 10829 10823 10817 10811 10805 10797 10791 10783 10775 10767 10760 10752
10888 10887 10887 10886 10884 10883 10881 10879 10876 10873 10870 10866 10862 10857 10853 10849 10844 10840 10834 10829 10823 10818 10812 10806 10799 10792 10786 10778 10769 10761 10752 10744 10736
10880 10880 10879 10878 10877 10875 10872 10870 10868 10865 10861 10857 10853 10847 10843 10838 10833 10828 10822 10817 10811 10805 10799 10794 10788 10781 10772 10762 10755 10746 10736 10726 10718
10872 10872 10872 10870 10868 10866 10864 10861 10858 10856 10852 10848 10843 10837 10832 10826 10821 10815 10810 10804 10798 10792 10786 10780 10773 10765 10758 10748 10739 10729 10717 10707 10698
10863 10864 10863 10862 10859 10857 10855 10852 10849 10846 10842 10838 10833 10827 10821 10815 10809 10803 10797 10791 10784 10778 10772 10765 10757 10749 10741 10733 10723 10712 10698 10687 10681
10854 10854 10854 10853 10849 10847 10844 10842 10838 10834 10831 10826 10821 10816 10811 10805 10797 10790 10785 10778 10771 10764 10756 10750 10742 10733 10723 10715 10705 10693 10680 10671 10662
10844 10844 10844 10843 10839 10836 10834 10831 10827 10823 10819 10815 10808 10803 10798 10791 10784 10778 10770 10764 10757 10749 10742 10733 10725 10716 10705 10695 10685 10674 10663 10650 10643
10833 10833 10832 10831 10828 10825 10822 10819 10816 10811 10806 10804 10796 10790 10784 10778 10771 10764 10754 10746 10739 10732 10725 10715 10707 10697 10687 10676 10665 10654 10645 10635 10624
10822 10821 10820 10819 10817 10814 10810 10807 10803 10798 10794 10791 10783 10777 10769 10762 10757 10750 10740 10729 10721 10714 10707 10697 10688 10677 10668 10655 10645 10635 10625 10617 10610
10812 10809 10807 10806 10804 10799 10797 10794 10790 10785 10778 10776 10773 10767 10755 10746 10739 10731 10723 10714 10706 10696 10686 10677 10667 10658 10648 10637 10626 10616 10607 10599 10594
10800 10798 10796 10792 10790 10786 10782 10779 10775 10770 10762 10758 10755 10754 10748 10739 10726 10714 10703 10694 10684 10676 10668 10658 10648 10638 10628 10618 10608 10598 10588 10582 10577
10787 10784 10781 10777 10774 10771 10767 10764 10760 10756 10751 10744 10738 10734 10730 10726 10720 10706 10692 10679 10668 10660 10651 10641 10629 10619 10609 10599 10590 10580 10571 10564 10559
10771 10769 10767 10764 10761 10757 10753 10749 10745 10741 10736 10731 10724 10717 10712 10705 10700 10692 10681 10669 10657 10647 10636 10625 10613 10603 10592 10582 10573 10563 10553 10548 10541